EW8570 Weather Reports


time (UTC)temp
C
wind
direction
speed
KPH
gust
KPH
rain 1hr
cm
rain 24hr
cm
rain mn
cm
humidity
%
barometer
mb
20260503045703 4 11 0.0 0.0 0.00 0.00 0.00 75 1014.6
20260503045604 5 11 0.0 0.0 0.00 0.00 0.00 72 1014.5
20260503045224 5 11 0.0 0.0 0.00 0.00 0.00 74 1014.6
20260503044747 5 11 0.0 0.0 0.00 0.00 0.00 74 1014.6
20260503044207 5 11 0.0 0.0 0.00 0.00 0.00 73 1014.5
20260503043132 5 11 0.0 0.0 0.00 0.00 0.00 71 1014.4
20260503042623 5 11 0.0 0.0 0.00 0.00 0.00 70 1014.4
20260503042123 6 11 0.0 0.0 0.00 0.00 0.00 69 1014.4
20260503042100 6 11 0.0 0.0 0.00 0.00 0.00 69 1014.4
20260503041641 6 11 0.0 0.0 0.00 0.00 0.00 69 1014.4
20260503040606 6 11 0.0 0.0 0.00 0.00 0.00 68 1014.3
20260503040403 10 326 3.2 8.0 0.00 0.00 0.00 52 1013.4
20260503040106 6 11 0.0 1.6 0.00 0.00 0.00 68 1014.3
20260503040021 13 304 6.4 16.1 0.00 0.00 0.00 42 1011.5
20260503035950 13 36 6.4 17.7 0.00 0.00 0.00 41 1011.3
20260503035859 8 315 1.6 8.0 0.00 0.00 0.00 56 1014.0
20260503035853 8 323 3.2 8.0 0.00 0.00 0.00 56 1014.0
20260503035754 8 336 1.6 4.8 0.00 0.00 0.00 56 1013.9
20260503035720 9 298 1.6 4.8 0.00 0.00 0.00 54 1013.9
20260503035645 9 344 0.0 0.0 0.00 0.00 0.00 54 1013.6
20260503035548 6 10 0.0 1.6 0.00 0.00 0.00 65 1014.3
20260503035539 10 344 1.6 3.2 0.00 0.00 0.00 52 1013.5
20260503035115 7 10 0.0 1.6 0.00 0.00 0.00 66 1014.3
20260503034634 7 10 0.0 3.2 0.00 0.00 0.00 65 1014.2
20260503034309 10 292 1.6 6.4 0.00 0.00 0.00 50 1013.1
20260503034255 10 294 1.6 6.4 0.00 0.00 0.00 49 1013.1
20260503034224 12 0 9.7 24.1 0.00 0.00 0.00 44 1012.0
20260503034034 7 10 0.0 3.2 0.00 0.00 0.00 64 1014.2
20260503033602 8 10 0.0 3.2 0.00 0.00 0.00 63 1014.2
20260503033125 8 10 1.6 4.8 0.00 0.00 0.00 62 1014.2
20260503032644 8 340 1.6 6.4 0.00 0.00 0.00 60 1014.1
20260503032208 8 310 3.2 8.0 0.00 0.00 0.00 56 1014.1
20260503031721 8 306 1.6 8.0 0.00 0.00 0.00 56 1014.0
20260503031241 8 355 1.6 8.0 0.00 0.00 0.00 56 1014.0
20260503025622 8 294 1.6 6.4 0.00 0.00 0.00 56 1014.1
20260503025142 8 309 1.6 4.8 0.00 0.00 0.00 57 1014.0
20260503024645 8 319 1.6 4.8 0.00 0.00 0.00 55 1013.9
20260503023209 13 47 4.8 17.7 0.00 0.00 0.00 42 1011.4
20260503022920 9 315 1.6 4.8 0.00 0.00 0.00 54 1013.7
20260503022447 9 312 0.0 4.8 0.00 0.00 0.00 55 1013.7
20260503021429 9 344 0.0 0.0 0.00 0.00 0.00 53 1013.6
20260503020427 10 344 1.6 3.2 0.00 0.00 0.00 52 1013.4
20260503015956 10 344 1.6 4.8 0.00 0.00 0.00 52 1013.5
20260503015513 10 324 1.6 8.0 0.00 0.00 0.00 52 1013.5
20260503014442 10 317 3.2 8.0 0.00 0.00 0.00 51 1013.3
20260503014001 10 318 3.2 8.0 0.00 0.00 0.00 51 1013.3
20260503013518 10 325 3.2 4.8 0.00 0.00 0.00 51 1013.2
20260503013033 10 311 3.2 4.8 0.00 0.00 0.00 51 1013.1
20260503012558 10 279 1.6 4.8 0.00 0.00 0.00 50 1013.1
20260503010854 11 282 1.6 6.4 0.00 0.00 0.00 50 1013.1
20260503010817 14 302 6.4 20.9 0.00 0.00 0.00 40 1011.1
20260503010709 14 29 6.4 16.1 0.00 0.00 0.00 41 1011.0
20260503010611 15 313 9.7 22.5 0.00 0.00 0.00 39 1011.2
20260503010540 15 337 9.7 25.7 0.00 0.00 0.00 41 1011.0
20260503010436 15 315 9.7 22.5 0.00 0.00 0.00 39 1010.6
20260503010351 11 315 1.6 6.4 0.00 0.00 0.00 48 1013.0
20260503010327 16 9 6.4 20.9 0.00 0.00 0.00 40 1010.3
20260503010252 16 301 9.7 24.1 0.00 0.00 0.00 37 1010.2
20260503010149 16 298 8.0 20.9 0.00 0.00 0.00 37 1010.0
20260503010026 16 307 8.0 24.1 0.00 0.00 0.00 37 1009.9
20260503005954 16 320 8.0 24.1 0.00 0.00 0.00 38 1009.8
20260503005847 11 309 1.6 8.0 0.00 0.00 0.00 48 1012.9
20260503005711 16 38 9.7 22.5 0.00 0.00 0.00 35 1009.6
20260503005401 11 314 3.2 8.0 0.00 0.00 0.00 47 1013.0
20260503004921 11 304 3.2 8.0 0.00 0.00 0.00 47 1012.9
20260503004437 11 355 3.2 8.0 0.00 0.00 0.00 47 1012.8
20260503003945 11 342 3.2 9.7 0.00 0.00 0.00 46 1012.7
20260503003506 11 323 3.2 9.7 0.00 0.00 0.00 46 1012.7
20260503003029 12 350 4.8 12.9 0.00 0.00 0.00 46 1012.7
20260503002551 12 304 4.8 14.5 0.00 0.00 0.00 46 1012.6
20260503002113 12 5 6.4 14.5 0.00 0.00 0.00 45 1012.5
20260503001635 12 15 6.4 12.9 0.00 0.00 0.00 45 1012.4
20260503001154 12 310 6.4 16.1 0.00 0.00 0.00 45 1012.3
20260503000714 12 331 8.0 24.1 0.00 0.00 0.00 44 1012.3
20260502235656 12 309 9.7 20.9 0.00 0.00 0.00 43 1011.9
20260502235219 13 322 8.0 20.9 0.00 0.00 0.00 43 1011.5
20260502233027 14 348 6.4 17.7 0.00 0.00 0.00 40 1011.4
20260502232556 14 351 6.4 20.9 0.00 0.00 0.00 40 1011.2
20260502231509 14 300 6.4 17.7 0.00 0.00 0.00 39 1011.1
20260502230444 14 313 8.0 16.1 0.00 0.00 0.00 42 1011.2
20260502230005 14 31 6.4 16.1 0.00 0.00 0.00 41 1011.1
20260502225525 14 24 8.0 20.9 0.00 0.00 0.00 41 1011.2
20260502225058 14 27 9.7 20.9 0.00 0.00 0.00 40 1011.1
20260502224615 14 341 11.3 20.9 0.00 0.00 0.00 40 1011.2
20260502223549 15 294 9.7 22.5 0.00 0.00 0.00 39 1011.1
20260502223115 15 0 9.7 20.9 0.00 0.00 0.00 39 1011.2
20260502222040 15 336 11.3 25.7 0.00 0.00 0.00 41 1010.8
20260502221602 15 337 9.7 25.7 0.00 0.00 0.00 40 1010.8
20260502221054 15 283 8.0 25.7 0.00 0.00 0.00 40 1010.7
20260502220613 15 246 8.0 22.5 0.00 0.00 0.00 40 1010.7
20260502215601 15 355 9.7 20.9 0.00 0.00 0.00 39 1010.5
20260502215116 15 14 9.7 25.7 0.00 0.00 0.00 39 1010.5
20260502214635 16 338 8.0 25.7 0.00 0.00 0.00 38 1010.4
20260502213614 16 290 9.7 20.9 0.00 0.00 0.00 40 1010.2
20260502212559 16 300 8.0 24.1 0.00 0.00 0.00 37 1010.1
20260502210355 16 333 9.7 22.5 0.00 0.00 0.00 37 1009.7
20260502205306 17 348 8.0 19.3 0.00 0.00 0.00 37 1009.5
20260502204758 17 298 6.4 17.7 0.00 0.00 0.00 36 1009.5
20260502204254 17 321 6.4 16.1 0.00 0.00 0.00 37 1009.5
20260502203750 17 312 8.0 19.3 0.00 0.00 0.00 37 1009.6
20260502203249 17 5 6.4 19.3 0.00 0.00 0.00 36 1009.6
20260502202735 17 310 6.4 17.7 0.00 0.00 0.00 35 1009.5
20260502202233 17 298 8.0 19.3 0.00 0.00 0.00 37 1009.5
20260502201727 17 295 11.3 22.5 0.00 0.00 0.00 37 1009.6
20260502201222 17 343 9.7 22.5 0.00 0.00 0.00 36 1009.7
20260502200717 17 69 8.0 19.3 0.00 0.00 0.00 37 1009.6
20260502200206 17 330 8.0 19.3 0.00 0.00 0.00 35 1009.7
20260502195706 17 306 8.0 19.3 0.00 0.00 0.00 36 1009.7
20260502195156 17 5 8.0 19.3 0.00 0.00 0.00 35 1009.7
20260502194947 16 355 6.4 17.7 0.00 0.00 0.00 40 1010.2
20260502194853 17 348 6.4 17.7 0.00 0.00 0.00 39 1010.2
20260502194652 17 69 8.0 20.9 0.00 0.00 0.00 38 1009.8
20260502194207 17 355 6.4 20.9 0.00 0.00 0.00 36 1009.9
20260502193734 17 314 4.8 12.9 0.00 0.00 0.00 39 1010.0
20260502193257 17 24 6.4 19.3 0.00 0.00 0.00 38 1010.2
20260502192709 17 294 6.4 20.9 0.00 0.00 0.00 36 1010.2
20260502192221 17 298 6.4 20.9 0.00 0.00 0.00 36 1010.2
20260502191744 17 342 6.4 16.1 0.00 0.00 0.00 36 1010.3
20260502191311 17 40 6.4 16.1 0.00 0.00 0.00 40 1010.3
20260502185649 16 333 4.8 19.3 0.00 0.00 0.00 40 1010.4
20260502185513 16 11 8.0 19.3 0.00 0.00 0.00 38 1010.4
20260502185201 16 92 6.4 19.3 0.00 0.00 0.00 42 1010.3
20260502184724 16 67 9.7 19.3 0.00 0.00 0.00 42 1010.4
20260502183647 16 47 4.8 19.3 0.00 0.00 0.00 41 1010.4
20260502183150 16 319 4.8 12.9 0.00 0.00 0.00 37 1010.5
20260502182942 16 293 4.8 14.5 0.00 0.00 0.00 42 1010.6
20260502182148 16 335 6.4 19.3 0.00 0.00 0.00 44 1010.7
20260502181701 15 14 8.0 20.9 0.00 0.00 0.00 41 1010.8
20260502181150 15 332 8.0 20.9 0.00 0.00 0.00 43 1011.0
20260502180648 15 41 8.0 22.5 0.00 0.00 0.00 39 1011.1
20260502180153 16 334 6.4 22.5 0.00 0.00 0.00 42 1011.2
20260502170227 13 38 3.2 9.7 0.00 0.00 0.00 43 1012.0
20260502163650 13 48 4.8 14.5 0.00 0.00 0.00 46 1012.6
20260502163156 13 5 4.8 12.9 0.00 0.00 0.00 46 1012.7
20260502162648 13 38 6.4 19.3 0.00 0.00 0.00 45 1012.9
20260502162309 12 308 6.4 16.1 0.00 0.00 0.00 50 1012.9
20260502162154 13 355 8.0 19.3 0.00 0.00 0.00 48 1013.0
20260502161704 13 61 6.4 16.1 0.00 0.00 0.00 48 1012.9
20260502161224 12 19 4.8 12.9 0.00 0.00 0.00 51 1012.9
20260502160145 12 69 6.4 16.1 0.00 0.00 0.00 48 1013.0
20260502152112 11 307 3.2 9.7 0.00 0.00 0.00 51 1013.4
20260502151957 10 323 6.4 17.7 0.00 0.00 0.00 52 1013.2
20260502151859 10 32 6.4 14.5 0.00 0.00 0.00 52 1013.0
20260502151627 11 5 4.8 14.5 0.00 0.00 0.00 51 1013.3
20260502151142 11 297 6.4 14.5 0.00 0.00 0.00 51 1013.3
20260502150708 11 321 6.4 17.7 0.00 0.00 0.00 53 1013.2
20260502130549 10 0 3.2 6.4 0.00 0.00 0.00 57 1013.0
20260502130108 10 298 3.2 6.4 0.00 0.00 0.00 56 1013.0
20260502123421 10 300 1.6 6.4 0.00 0.00 0.00 58 1012.5
20260502122916 10 311 3.2 11.3 0.00 0.00 0.00 57 1012.3
20260502122418 10 5 4.8 14.5 0.00 0.00 0.00 56 1012.4
20260502121907 10 0 4.8 14.5 0.00 0.00 0.00 58 1012.3
20260502121402 10 29 4.8 11.3 0.00 0.00 0.00 56 1012.3
20260502120856 10 50 6.4 14.5 0.00 0.00 0.00 58 1012.2
20260502120350 10 28 4.8 14.5 0.00 0.00 0.00 56 1012.5
20260502120158 10 0 8.0 17.7 0.00 0.00 0.00 56 1012.4
20260502115900 10 38 4.8 8.0 0.00 0.00 0.00 57 1012.6
20260502115415 10 47 6.4 14.5 0.00 0.00 0.00 56 1012.4
20260502114606 10 350 8.0 17.7 0.00 0.00 0.00 55 1012.3
20260502113816 10 31 6.4 17.7 0.00 0.00 0.00 56 1012.3
20260502113314 10 11 4.8 16.1 0.00 0.00 0.00 57 1012.2
20260502112803 10 317 3.2 9.7 0.00 0.00 0.00 56 1012.2
20260502112258 10 336 4.8 11.3 0.00 0.00 0.00 57 1012.2
20260502111758 10 345 4.8 14.5 0.00 0.00 0.00 56 1012.1
20260502111245 10 317 4.8 17.7 0.00 0.00 0.00 55 1011.9
20260502110742 10 330 6.4 17.7 0.00 0.00 0.00 56 1011.9
20260502110240 10 15 4.8 16.1 0.00 0.00 0.00 57 1011.8
20260502105735 10 344 1.6 14.5 0.00 0.00 0.00 59 1011.9
20260502105224 10 26 3.2 11.3 0.00 0.00 0.00 58 1011.7
20260502105134 10 301 8.0 22.5 0.00 0.00 0.00 61 1011.8
20260502105103 10 333 9.7 22.5 0.00 0.00 0.00 60 1011.7
20260502104742 10 0 4.8 11.3 0.00 0.00 0.00 59 1011.9
20260502104313 10 355 4.8 14.5 0.00 0.00 0.00 59 1011.6
20260502103918 10 303 8.0 22.5 0.00 0.00 0.00 61 1011.8
20260502103845 10 355 11.3 27.4 0.00 0.00 0.00 63 1011.8
20260502103729 10 347 8.0 25.7 0.00 0.00 0.00 59 1011.8
20260502103257 10 19 8.0 25.7 0.00 0.00 0.00 59 1011.6
20260502102828 10 10 8.0 20.9 0.00 0.00 0.00 60 1011.7
20260502100758 10 34 9.7 27.4 0.00 0.00 0.00 63 1011.9
20260502091306 11 283 6.4 20.9 0.00 0.00 0.00 68 1012.0
20260502090826 11 335 8.0 20.9 0.00 0.00 0.00 68 1012.0
20260502070153 11 351 8.0 20.9 0.00 0.00 0.00 67 1010.8
20260502065652 11 315 9.7 20.9 0.00 0.00 0.00 67 1011.1
20260502065150 11 26 9.7 20.9 0.00 0.00 0.00 67 1011.2
20260502064651 11 314 8.0 17.7 0.00 0.00 0.00 68 1011.3
20260502064158 11 350 6.4 17.7 0.00 0.00 0.00 69 1011.4
20260502063650 11 344 6.4 19.3 0.00 0.00 0.00 69 1011.3
20260502063148 11 283 4.8 19.3 0.00 0.00 0.00 69 1011.5
20260502062639 12 42 3.2 8.0 0.00 0.00 0.00 70 1011.6
20260502062137 12 355 3.2 8.0 0.00 0.00 0.00 69 1011.6
20260502061713 11 327 1.6 6.4 0.00 0.00 0.00 76 1011.6
20260502061629 12 0 4.8 14.5 0.00 0.00 0.00 69 1011.7
20260502061557 10 355 3.2 8.0 0.00 0.00 0.00 82 1011.8
20260502061525 11 57 0.0 3.2 0.00 0.00 0.00 74 1011.7
20260502061431 11 355 1.6 6.4 0.00 0.00 0.00 76 1011.7
20260502061135 12 39 4.8 14.5 0.00 0.00 0.00 69 1011.7
20260502060659 12 350 4.8 14.5 0.00 0.00 0.00 69 1011.7
20260502060312 10 0 3.2 8.0 0.00 0.00 0.00 79 1011.7
20260502060112 12 300 4.8 14.5 0.00 0.00 0.00 70 1011.8
20260502055624 11 292 4.8 12.9 0.00 0.00 0.00 70 1011.9
20260502055137 11 306 4.8 12.9 0.00 0.00 0.00 71 1011.9
20260502054652 11 342 3.2 8.0 0.00 0.00 0.00 71 1011.8
20260502054415 10 348 1.6 8.0 0.00 0.00 0.00 82 1011.8
20260502054109 11 347 3.2 11.3 0.00 0.00 0.00 72 1011.8
20260502053632 11 0 1.6 11.3 0.00 0.00 0.00 72 1011.8
20260502053157 11 323 1.6 3.2 0.00 0.00 0.00 73 1011.9
20260502052716 11 36 0.0 3.2 0.00 0.00 0.00 74 1011.7
20260502051702 11 67 1.6 6.4 0.00 0.00 0.00 75 1011.7